Regional Weather Roundup
Issued by NWS

Home | Current Version | Previous Version | Graphics & Text | Print | Product List | Glossary On
Versions: 1 2 3 4 5 6 7 8 9 10 11 12 13 14 15 16 17 18 19 20 21 22 23 24 25 26 27 28 29 30 31 32 33 34 35 36 37 38 39 40 41 42 43 44 45 46 47 48 49 50
000
ASUS45 KPSR 171210
RWRAZ

ARIZONA REGIONAL HOURLY WEATHER ROUNDUP
NATIONAL WEATHER SERVICE PHOENIX AZ
500 AM MST THU APR 17 2014

NOTE: FAIR INDICATES FEW OR NO CLOUDS BELOW 12,000 FEET WITH NO
SIGNIFICANT WEATHER AND/OR OBSTRUCTIONS TO VISIBILITY.

AZZ001>003-036-171300-
NORTHWEST ARIZONA

CITY           SKY/WX    TMP DP  RH WIND       PRES   REMARKS
BULLHEAD CITY  CLEAR     66  23  19 CALM      29.78S
KINGMAN        CLEAR     62  15  16 SE16      29.90S
6HR MIN TEMP:  51; 6HR MAX TEMP:  62;

$$

AZZ004>008-015-016-018-171300-
NORTH CENTRAL ARIZONA

CITY           SKY/WX    TMP DP  RH WIND       PRES   REMARKS
GRAND CANYON   CLEAR     26  15  63 CALM      30.09R
6HR MIN TEMP:  25; 6HR MAX TEMP:  38;

WILLIAMS       CLEAR     37  18  44 SE10      30.15R WCI  30
PRESCOTT       CLEAR     46  18  32 CALM      30.01R
6HR MIN TEMP:  44; 6HR MAX TEMP:  58;

FLAGSTAFF      CLEAR     28  16  60 CALM      30.10R
6HR MIN TEMP:  27; 6HR MAX TEMP:  37;

PAYSON         CLEAR     50  18  27 CALM      30.03S
PAGE           CLEAR     50  24  36 W6        30.01
6HR MIN TEMP:  48; 6HR MAX TEMP:  57;

$$

AZZ009>014-017-171300-
NORTHEAST ARIZONA

CITY           SKY/WX    TMP DP  RH WIND       PRES   REMARKS
WINSLOW        CLEAR     37  19  48 S3        30.05R
6HR MIN TEMP:  37; 6HR MAX TEMP:  50;

SAINT JOHNS    CLEAR     41  14  33 SE6       30.05R
6HR MIN TEMP:  40; 6HR MAX TEMP:  52;

WINDOW ROCK    CLEAR     26  14  60 CALM      30.11R
6HR MIN TEMP:  25; 6HR MAX TEMP:  40;

SHOW LOW       CLEAR     36  12  38 S5        30.10R WCI  32
$$

AZZ023-171300-
GREATER PHOENIX AREA

CITY           SKY/WX    TMP DP  RH WIND       PRES   REMARKS
PHOENIX        CLEAR     67  24  19 E6        29.84R
6HR MIN TEMP:  67; 6HR MAX TEMP:  81;

BUCKEYE          N/A     59  19  21 N9        29.85R
LUKE AFB       NOT AVBL
6HR MIN TEMP:  61; 6HR MAX TEMP:  76;

DEER VALLEY    CLEAR     65  23  20 E6        29.86R
6HR MIN TEMP:  60; 6HR MAX TEMP:  72;

SCOTTSDALE     CLEAR     64  29  26 CALM      29.88R
6HR MIN TEMP:  64; 6HR MAX TEMP:  77;

MESA-GATEWAY   CLEAR     63  21  20 E9        29.88R
$$

AZZ027-028-171300-
SOUTHWEST MARICOPA COUNTY AND PINAL COUNTY

CITY           SKY/WX    TMP DP  RH WIND       PRES   REMARKS
CASA GRANDE    CLEAR     57  19  23 CALM      29.88R
6HR MIN TEMP:  55; 6HR MAX TEMP:  70;

$$

AZZ503-504-507>509-171300-
SOUTHEAST ARIZONA

CITY           SKY/WX    TMP DP  RH WIND       PRES   REMARKS
TUCSON         CLEAR     62  18  18 E10       29.94S
6HR MIN TEMP:  61; 6HR MAX TEMP:  72;

DAVIS-MONTHAN  CLEAR     56  20  24 SE7       29.94R
6HR MIN TEMP:  56; 6HR MAX TEMP:  69;

NOGALES        CLEAR     48  24  39 E6        29.99R
6HR MIN TEMP:  48; 6HR MAX TEMP:  63;

SIERRA VISTA   CLEAR     52  19  28 W3        30.02R
DOUGLAS        CLEAR     51  20  29 SE7       30.02R
6HR MIN TEMP:  49; 6HR MAX TEMP:  63;

SAFFORD        CLEAR     50   3  14 NE5       29.94R
6HR MIN TEMP:  50; 6HR MAX TEMP:  64;

$$

AZZ020-021-025-026-031-171300-
SOUTHWEST ARIZONA

CITY           SKY/WX    TMP DP  RH WIND       PRES   REMARKS
YUMA           CLEAR     70  30  23 E6        29.77R
$$

CAZ031-033-041-043-047-048-061-171300-
SOUTHERN CALIFORNIA

CITY           SKY/WX    TMP DP  RH WIND       PRES   REMARKS
DOWNTOWN L.A.  CLOUDY    59  52  77 CALM      29.86S
6HR MIN TEMP:  59; 6HR MAX TEMP:  61;

L.A. AIRPORT   CLOUDY    60  52  74 SE5       29.87S
6HR MIN TEMP:  58; 6HR MAX TEMP:  61;

SAN DIEGO      CLOUDY    61  52  72 S8        29.87R
6HR MIN TEMP:  60; 6HR MAX TEMP:  62;

BURBANK        CLOUDY    57  52  83 NE5       29.86S
6HR MIN TEMP:  56; 6HR MAX TEMP:  60;

ONTARIO        MOCLDY    55  52  89 W12       29.85R
6HR MIN TEMP:  54; 6HR MAX TEMP:  60;

RIVERSIDE      CLEAR     54  51  90 W7        29.85R
6HR MIN TEMP:  54; 6HR MAX TEMP:  61;

PALM SPRINGS   CLEAR     68  43  40 CALM      29.79S
6HR MIN TEMP:  67; 6HR MAX TEMP:  79;

IMPERIAL       CLEAR     61  49  64 E6        29.74R
6HR MIN TEMP:  60; 6HR MAX TEMP:  78;

BLYTHE         CLEAR     69  20  15 S7        29.77R
6HR MIN TEMP:  69; 6HR MAX TEMP:  81;

NEEDLES        CLEAR     69  21  16 W7        29.78R
6HR MIN TEMP:  68; 6HR MAX TEMP:  83;

$$

NVZ020-UTZ003-171300-
SOUTHERN NEVADA-UTAH

CITY           SKY/WX    TMP DP  RH WIND       PRES   REMARKS
LAS VEGAS      PTCLDY    65  26  23 SW3       29.81R
6HR MIN TEMP:  65; 6HR MAX TEMP:  76;

SALT LAKE CITY PTCLDY    37  21  52 SE8       30.03R WCI  31
6HR MIN TEMP:  37; 6HR MAX TEMP:  45;

$$

NMZ009-TXZ055-171300-
NEW MEXICO-WEST TEXAS

CITY           SKY/WX    TMP DP  RH WIND       PRES   REMARKS
ALBUQUERQUE    CLEAR     48  30  49 NE12      30.06R
6HR MIN TEMP:  48; 6HR MAX TEMP:  59;

EL PASO        MOCLDY    60   2   9 NE10      29.94R
6HR MIN TEMP:  60; 6HR MAX TEMP:  73;

$$


........................KEY........................
SKY/WX - SKY CONDITION/WEATHER
TMP    - TEMPERATURE IN FAHRENHEIT
DP     - DEW POINT IN FAHRENHEIT
RH     - RELATIVE HUMIDITY IN PERCENT
WIND   - DIRECTION AND SPEED IN MILES PER HOUR (MPH)
VRB    - VARIABLE WIND DIRECTION
PRES   - MEAN SEA LEVEL PRESSURE IN INCHES OF MERCURY
         F - FALLING PRESSURE   R - RISING PRESSURE
         S - STEADY PRESSURE
VSB    - VISIBILITY IN MILES
HX     - HEAT INDEX IN FAHRENHEIT
WCI    - WIND CHILL INDEX IN FAHRENHEIT
TC     - TEMPERATURE IN CELSIUS WHICH IS ALSO KNOWN AS
         TEMPERATURE IN CENTIGRADE
AFB    - AIR FORCE BASE
         LUKE AFB IS LUKE AIR FORCE BASE
         DAVIS-MONTHAN IS DAVIS-MONTHAN AIR FORCE BASE
NAS    - NAVAL AIR STATION
         EL CENTRO NAS IS EL CENTRO NAVAL AIR STATION
N/A    - NOT AVAILABLE



USA.gov is the U.S. government's official web portal to all federal, state and local government web resources and services.